Location: Bruch
(44.2051°N, 0.4120°E)
Time: 16:50:18
(UTC+00:00)

HODOYOSHI 4 - Visible Passes

Search period start: 24 June 2021 00:00
Search period end: 04 July 2021 00:00
Orbit: 606 x 644 km, 97.7° (Epoch: 23 June)

Date Brightness Start Highest point End Pass type
(mag) Time Alt. Az. Time Alt. Az. Time Alt. Az.
24 Jun ? 21:36:15 10° NNE 21:40:24 46° E 21:42:20 27° SSE visible
24 Jun ? 23:13:23 10° NNW 23:16:17 18° WNW 23:19:10 10° WSW visible
25 Jun ? 21:55:00 10° NNE 21:59:17 75° ESE 22:01:23 29° S visible
25 Jun ? 23:33:17 10° NW 23:34:55 12° WNW 23:36:31 10° W visible
26 Jun ? 20:40:03 10° ENE 20:41:24 11° E 20:42:44 10° ESE visible
26 Jun ? 22:13:51 10° N 22:18:07 68° WNW 22:20:26 26° SSW visible
27 Jun ? 20:57:30 10° NE 21:00:27 18° E 21:02:12 14° ESE visible
27 Jun ? 22:32:50 10° N 22:36:53 42° WNW 22:39:28 20° SW visible
28 Jun ? 21:15:45 10° NE 21:19:26 28° E 21:21:15 20° SE visible
28 Jun ? 22:51:59 10° N 22:55:37 28° WNW 22:58:30 14° WSW visible
29 Jun ? 21:34:16 10° NNE 21:38:22 44° E 21:40:16 27° SSE visible
29 Jun ? 23:11:19 10° NNW 23:14:17 19° WNW 23:17:13 10° WSW visible
30 Jun ? 21:52:59 10° NNE 21:57:15 72° ESE 21:59:19 30° S visible
30 Jun ? 23:31:09 10° NW 23:32:54 12° WNW 23:34:39 10° W visible
01 Jul ? 20:38:19 10° ENE 20:39:21 11° E 20:40:24 10° ESE visible
01 Jul ? 22:11:49 10° N 22:16:05 71° WNW 22:18:20 27° SSW visible
02 Jul ? 20:55:34 10° NE 20:58:24 17° E 21:00:06 14° ESE visible
02 Jul ? 22:30:48 10° N 22:34:52 44° WNW 22:37:23 21° SW visible
03 Jul ? 21:13:46 10° NE 21:17:24 27° E 21:19:08 20° SE visible
03 Jul ? 22:49:56 10° N 22:53:36 29° WNW 22:56:24 15° WSW visible
